www.pogodaiklimat.ru

Погода и климат >> Архив погоды >> Россия >> Якутия >> Тонгулах


ПОГОДА в Тонгулахе

  • Прогноз погоды в Тонгулахе
  • Монитор погоды в Тонгулахе
  • Климат города

АРХИВ ПОГОДЫ в Тонгулахе

Время (UTC), дата Ветер
(напр.,м/с)
 
Видим.   Явления Облачность Т
(С)
Тd
(С)
f
(%)
Тe
(С)
Тes
(С)
Комфортность P
(гПа)
Po
(гПа)
Тmin
(С)
Tmax
(С)
R
(мм)
S
(см)
06 17.03 З 4 50 км 3/1 1000 м
[Cu hum Ci sp]
-1.1 -15.0 34 -6 -4 1020.8 995.6
09 17.03 З 4 50 км 8/0
[Ci sp]
-3.4 -14.7 41 -9 -9 1022.3 997.0
12 17.03 З 1 20 км 3/3 1000 м
[Sc]
-8.8 -14.8 62 -11 -11 1025.4 999.3 -0.6
15 17.03 штиль 0 20 км 3/3 1000 м
[Sc]
-14.5 -18.0 75 -15 -15 1027.6 1001.0
18 17.03 штиль 0 20 км 4/4 1000 м
[Sc]
-16.2 -18.8 80 -16 -16 1028.2 1001.4
21 17.03 штиль 0 20 км ясно -24.0 -25.9 84 -24 -24 1031.4 1003.6
00 18.03 штиль 0 50 км ясно -19.0 -20.9 85 -19 -17 1031.9 1004.7 -24.3 38
03 18.03 СЗ 2 50 км 10/3 1000 м
[Cu hum Cs]
-4.3 -12.8 51 -8 -5 1030.3 1004.6
06 18.03 50 км н/о -4.5 -13.1 51 -8 -7 1030.3 1004.6
09 18.03 З 3 50 км 9/3 1000 м
[Sc Ac trans]
-4.7 -14.0 48 -10 -10 1029.3 1003.5
12 18.03 штиль 0 20 км 6/0
[Ac trans]
-11.0 -16.3 65 -11 -11 1029.9 1003.5 -4.0
15 18.03 штиль 0 20 км 3/0
[Ac trans]
-17.0 -20.4 75 -17 -17 1030.4 1003.4
18 18.03 штиль 0 20 км 3/0
[Ci fib]
-18.1 -21.4 75 -18 -18 1030.1 1003.0
21 18.03 штиль 0 50 км 3/0
[Ci fib]
-18.0 -19.8 86 -18 -18 1029.9 1002.9
00 19.03 штиль 0 50 км 8/0
[As trans]
-11.0 -13.8 80 -11 -10 1028.1 1001.8 -18.3 38
03 19.03 штиль 0 50 км 10/0
[As op]
-5.0 -10.8 64 -6 -4 1027.0 1001.3
06 19.03 штиль 0 50 км 10/0
[As op]
-3.0 -9.3 62 -4 -3 1026.4 1000.9
09 19.03 штиль 0 50 км 10/0
[As op]
-3.0 -9.0 63 -4 -4 1026.7 1001.2
12 19.03 штиль 0 20 км 10/0
[As op]
-9.0 -11.5 82 -10 -10 1027.2 1002.1 -2.7
15 19.03 штиль 0 20 км 10/0
[As op]
-15.0 -17.0 85 -15 -15 1029.2 1002.5
18 19.03 штиль 0 20 км 10/0
[As op]
-17.0 -18.9 85 -17 -17 1030.0 1003.0
21 19.03 штиль 0 20 км 10/0
[As op]
-16.0 -17.9 85 -16 -16 1029.5 1002.6
00 20.03 штиль 0 50 км 10/0
[As op]
-9.9 -11.6 87 -10 -10 1029.2 1002.9 -17.3 37
03 20.03 СЗ 1 50 км 8/0
[Ac As]
-4.3 -8.5 72 -6 -4 1028.4 1002.7
06 20.03 С 1 50 км 8/3 600 м
[Sc Ac trans]
+0.1 -7.1 58 -1 0 1027.0 1001.9
09 20.03 штиль 0 50 км 4/4 1000 м
[Sc]
-1.4 -7.7 62 -2 -2 1026.9 1001.6
12 20.03 штиль 0 20 км 3/0
[Ac trans]
-4.1 -8.7 70 -5 -5 1027.3 1001.7 +0.4
15 20.03 штиль 0 20 км ясно -10.6 -12.6 85 -11 -11 1027.3 1001.1
18 20.03 штиль 0 20 км ясно -13.3 -15.3 85 -13 -13 1026.9 1000.4
21 20.03 штиль 0 20 км ясно -17.9 -19.1 90 -18 -18 1026.7 999.7
00 21.03 штиль 0 50 км ясно -10.0 -11.7 87 -10 -8 1025.6 999.4 -18.0 37
03 21.03 СЗ 3 50 км ясно -0.7 -8.3 56 -5 -1 1023.7 998.5
06 21.03 СЗ 3 50 км ясно +1.9 -7.9 48 -2 +2 1022.6 997.6
09 21.03 С 2 50 км 8/8 1000 м
[Sc]
+0.2 -9.1 50 -3 -3 1022.8 997.7
12 21.03 С 2 20 км 10/0
[As op]
-1.9 -9.4 56 -5 -5 1023.7 998.3 +2.2
15 21.03 С 1 20 км 10/0
[As op]
-3.9 -10.1 62 -6 -6 1023.5 997.9
18 21.03 штиль 0 20 км 10/0
[As op]
-5.3 -10.3 68 -6 -6 1022.8 998.0
21 21.03 штиль 0 20 км ясно -13.5 -14.8 90 -14 -14 1023.4 998.1
00 22.03 С 1 50 км 8/0
[Ci fib]
-7.5 -9.7 84 -10 -8 1023.7 997.8 -13.8 36
03 22.03 СЗ 2 50 км 10/0
[Cs]
-1.1 -7.7 61 -4 -0 1023.2 997.9
06 22.03 СЗ 3 50 км 10/3 1000 м
[Sc Cs]
+1.1 -7.7 52 -3 -1 1022.8 997.3
09 22.03 З 1 50 км 10/10 1000 м
[Sc]
0.0 -8.5 53 -1 -1 1023.5 998.3
12 22.03 штиль 0 20 км 8/3 1000 м
[Sc Ci fib]
-2.6 -9.3 60 -3 -3 1024.6 999.2 +1.7
15 22.03 штиль 0 20 км 8/3 1000 м
[Sc Ci fib]
-2.6 -9.3 60 -3 -3 1024.6 999.2 +1.7
18 22.03 З 2 20 км 10/6
[Sc Cs]
-6.6 -9.4 80 -11 -11 1024.8 999.0
21 22.03 штиль 0 20 км 10/0
[Cs]
-12.0 -14.0 85 -12 -12 1025.6 999.2
00 23.03 штиль 0 50 км 8/0
[Ac trans]
-8.0 -10.3 83 -9 -7 1025.5 999.5 -12.3 37
03 23.03 штиль 0 50 км 10/0
[Ac As]
+0.5 -6.0 62 -0 +2 1024.1 999.0
06 23.03 штиль 0 50 км 10/0
[Ac As]
+1.5 -5.1 61 +1 +3 1022.6 997.7
09 23.03 штиль 0 50 км 5/0
[Ac trans]
+1.5 -6.9 54 +1 +1 1022.0 997.1
12 23.03 штиль 0 20 км 6/0
[Ci fib]
-5.0 -10.4 66 -6 -6 1022.7 997.2 +1.8
15 23.03 штиль 0 20 км 5/0
[Ci fib]
-6.5 -9.4 80 -7 -7 1022.2 996.6
18 23.03 штиль 0 20 км 10/0
[Cs]
-9.0 -11.9 79 -9 -9 1022.2 996.3
21 23.03 штиль 0 20 км 10/8 1000 м
[Sc Cs]
-10.0 -11.7 87 -10 -10 1020.9 994.9
00 24.03 штиль 0 50 км 9/6 600 м
[Sc Ac trans]
-3.9 -6.1 85 -5 -4 1020.0 994.6 -10.3 35

 

Местоположение метеостанции Тонгулах (Якутия, Россия): широта 61.92 долгота 124.50 высота над уровнем моря 199 м.

В архиве по умолчанию представлена погода в Тонгулахе за последнюю неделю. Архивные данные за месяц целиком и за предыдущие месяцы, начиная с января 2011 года, Вы можете получить, выбрав интересующий диапазон дат из раскрывающегося списка и нажав кнопку "Ввод!".

Внимание! Время в таблицах - всемирное. Для получения местного времени необходимо прибавить поправку, которая в Тонгулахе равна 9 ч.

Смотрите также архив погоды в соседних городах и на ближайших метеорологических станциях:

Погода в Исите (Якутия, Россия) (130 км)
Погода в Бердигестяхе (Якутия, Россия) (136 км)
Погода в Хатырык-Хомо (Якутия, Россия) (226 км)
Погода в Покровске (Якутия, Россия) (247 км)
Погода в Вилюйске (Якутия, Россия) (253 км)
Погода в Якутске (Якутия, Россия) (267 км)
Погода в Сангаре (Якутия, Россия) (269 км)
Погода в Олекминске (Якутия, Россия) (277 км)
Погода в Верхневилюйске (Якутия, Россия) (278 км)
Погода в Намцах (Якутия, Россия) (278 км)

Пояснения к столбцам:

Ветер - указаны скорость ветра в м/с - средняя за 10 мин, порывы в срок и между сроками (в фигурных скобках) и направление, откуда дует ветер: С - северный, СВ - северо-восточный, В - восточный, ЮВ - юго-восточный, Ю - южный, ЮЗ - юго-западный, З - западный, СЗ - северо-западный.
Видимость - горизонтальная дальность видимости в метрах или километрах. При видимости от 1 до 10 км при отсутствии осадков обычно наблюдается дымка, при ухудшении видимости до 1 км и менее - туман. В сухую погоду видимость может ухудшаться дымом, пылью или мглою.
Явления - указаны атмосферные явления, наблюдавшиеся в срок или в последний час перед сроком; фигурными скобками обозначены явления, наблюдавшиеся между сроками (за 1-3 часа до срока); квадратными скобками обозначены град или гололедные отложения с указанием их диаметра в мм.
Облачность - указаны через наклонную черту общая и нижняя облачность в баллах и высота нижней границы облаков в метрах; квадратными скобками обозначены формы облаков: Ci - перистые, Cs - перисто-слоистые, Cc - перисто-кучевые, Ac - высококучевые, As - высокослоистые, Sc - слоисто-кучевые, Ns - слоисто-дождевые, Cu - кучевые, Cb - кучево-дождевые. Подробнее классификацию облаков см. в Атласе облаков (PDF).
T - Температура воздуха - температура, измеренная на высоте 2 м над землей.
Td - Температура точки росы - температура, при понижении до которой содержащийся в воздухе водяной пар достигнет насыщения.
f - Относительная влажность воздуха - влажноcть воздуха, измеренная на высоте 2 м над землей.
Te - Эффективная температура - температура, которую ощущает одетый по сезону человек в тени. Характеристика душности погоды. При расчете учитывается влияние влажности воздуха и скорости ветра на теплоощущения человека.
Tes - Эффективная температура на солнце - температура, которую ощущает человек, с поправкой на солнечный нагрев. Характеристика знойности погоды. Зависит от высоты солнца над горизонтом, облачности и скорости ветра. Ночью, в пасмурную погоду, а также при ветре 12 м/с и более поправка равна нулю.
P - Атмосферное давление - приведенное к уровню моря атмосферное давление.
Po - Атмосферное давление - измеренное на уровне метеостанции атмосферное давление.
Tmin - Минимальная температура - минимум температуры воздуха на высоте 2 м над землей.
Tmax - Максимальная температура - максимум температуры воздуха на высоте 2 м над землей.
R - Количество осадков - Количество выпавших осадков, мм. При наведении курсора мыши на число - период времени, за который выпало указанное количество осадков.
S - Снежный покров - Высота снежного покрова, см. При наведении курсора мыши на число - состояние снежного покрова и степень покрытия местности в баллах.